Showing default

EGS (AJISAI), 16908

Orbit data source: Space-Track

EGS (AJISAI), 16908 is a payload satellite owned by NASDA (JP) in LEO that was launched on Tue, 12 Aug 1986 UTC via an H-1 launch vehicle from the Tanegashima Space Center (TNSTA). Payload-class satellites include a variety of spacecraft equipped with specific instruments for various scientific and technological missions. These include communications satellites like Starlink; space stations such as the ISS; scientific satellites like the Hubble; Earth observation satellites from companies like Planet Labs, Umbra, and HawkEye 360; GPS; miniature CubeSats for education and research; and military/defense satellites.

Loading next visibility...
Identifier
16908, 1986-061A
Orbit
LEO
Country
Flag of JPJP / JPN
Related business
Manufacturer
Kawasaki
Mission
Operational Civil Geodetic
Bus & Motor
EGP, Unknown motor
Mass
685 kg wet, 685 kg dry
Launch date (UTC)
1986-08-12 (40 years ago)
Launch vehicle
H-1
Launch site
Tanegashima Space Center (TNSTA)
Object type
Payload
Rocket body
Debris
Shape & HBR
Sphere, 1.1 m
Radar Cross Section
3.631 m², Large (>1 m²)

Expand to show TLE details & history
Last TLE update: 7 hours ago

TLE from 7 hours ago
0 EGS (AJISAI)
1 16908U 86061A   26072.58978535 -.00000096  00000-0  94091-5 0  9996
2 16908  50.0081  81.3542 0011281 297.0598 219.9554 12.44515656468480
Epoch: 2026-03-13T14:09Z
TLE epoch observation values (Epoch: 2026-03-13T14:09:17.454Z)
Latitude
17.49884°
Longitude
-137.45041°
Altitude
1,494.243 km
Speed
7.116 km/s
True Right ascension
16h 24m 22s
True Declination
17° 24' 35"
Sunlit
Object was in daylight at epoch
Visualization orbit readout
Latitude
Unknown
Longitude
Unknown
Altitude
Unknown
Speed
Unknown
Apparent Right ascension
Unknown
Apparent Declination
Unknown
Sunlit
N/A
Visualization observer readout
Local Sidereal Time
01:47:42
Azimuth
Unknown
Elevation
Unknown
Doppler factor
Unknown
Orbital elements
Apogee altitude
1,497.067 km
Perigee altitude
1,479.319 km
Semi-major axis
7,866.33 km
Eccentricity
0.00113
Inclination
50.0081°
RAAN
81.3542°
Arg. of periapsis
297.0598°
True anomaly
219.87247°
Mean anomaly
219.9554°
Eccentric anomaly
219.91393°
Mean motion
3.11089 °/min
Orbital period
115.72 mins
BSTAR
0.0000094091
Loading maneuver chart data...
Computing Atmospheric mass density...
Loading historical data...
Loading historical data...
Loading historical data...
Loading historical data...
Loading historical data...
Loading historical data...
Loading historical data...
Other satellites on launch #61 in the year 1986 (1986-08-12 UTC)

Documentation

Showing up to 5 results
|